Total_Precipitation_Accumulation
0.32 0.49 0.71 0.95 1.20 1.34 1.36 1.41 1.46 1.67 1.88 2.17 2.44 2.59 2.66 2.89 2.98 3.01 3.15 3.15 3.10 3.18 3.19 3.09 2.96 2.81 2.67 2.52 2.42 2.25 2.09 1.90 1.76 1.59 1.30 1.01 0.83 0.83 0.80 0.78 0.77 0.73 0.69
0.49 0.77 1.04 1.41 1.58 1.61 1.59 1.68 1.75 1.95 2.20 2.55 2.94 3.35 3.53 3.68 3.67 3.68 3.87 3.99 4.00 4.12 4.21 4.09 3.86 3.66 3.29 2.85 2.52 2.30 2.17 1.98 1.89 1.75 1.62 1.23 0.91 0.71 0.60 0.63 0.66 0.66 0.67
0.81 1.03 1.23 1.36 1.55 1.66 1.74 1.83 2.09 2.46 2.89 3.34 3.79 4.18 4.46 4.51 4.45 4.19 4.21 4.33 4.33 4.36 4.52 4.50 4.21 3.80 3.25 2.75 2.55 2.42 2.25 2.09 1.97 1.80 1.75 1.49 1.21 0.89 0.65 0.56 0.51 0.51 0.49
0.83 0.99 1.19 1.40 1.52 1.66 1.84 1.96 2.26 2.77 3.22 3.67 4.28 4.74 5.00 5.15 5.24 5.04 4.74 4.58 4.43 4.31 4.21 4.08 3.69 3.22 2.85 2.56 2.44 2.38 2.18 2.10 1.95 1.83 1.58 1.37 1.20 1.02 0.80 0.61 0.49 0.42 0.37
0.59 0.76 0.93 1.25 1.51 1.60 1.65 1.76 2.15 2.73 3.45 4.14 4.64 5.10 5.43 5.51 5.44 5.11 4.74 4.36 4.04 3.66 3.32 2.99 2.74 2.58 2.36 2.14 2.01 1.94 1.86 1.72 1.59 1.55 1.46 1.33 1.16 0.96 0.78 0.67 0.57 0.51 0.45
0.43 0.52 0.65 0.90 1.23 1.33 1.50 1.74 2.09 2.76 3.51 4.10 4.57 4.91 5.22 5.22 4.92 4.50 4.03 3.72 3.37 2.95 2.58 2.39 2.17 2.00 1.80 1.57 1.42 1.35 1.36 1.38 1.40 1.41 1.36 1.27 1.18 1.04 0.92 0.80 0.67 0.61 0.57
0.38 0.44 0.52 0.70 0.96 1.16 1.45 1.82 2.21 2.73 3.18 3.68 4.08 4.30 4.46 4.49 4.39 4.12 3.73 3.43 3.06 2.65 2.23 1.90 1.73 1.52 1.33 1.21 1.12 1.07 1.06 1.09 1.14 1.22 1.24 1.20 1.15 1.07 1.02 0.97 0.88 0.80 0.72
0.46 0.54 0.65 0.79 0.93 1.08 1.28 1.64 1.98 2.39 2.63 2.86 3.18 3.39 3.52 3.53 3.43 3.26 2.99 2.67 2.37 2.11 1.81 1.40 1.12 0.95 0.84 0.78 0.77 0.80 0.81 0.83 0.88 0.95 1.00 1.01 1.00 0.99 0.99 0.99 0.99 1.02 0.94
0.42 0.54 0.66 0.75 0.84 0.93 1.12 1.29 1.48 1.74 2.01 2.25 2.39 2.48 2.53 2.44 2.36 2.20 1.98 1.79 1.61 1.41 1.18 0.94 0.77 0.68 0.63 0.59 0.56 0.57 0.57 0.59 0.65 0.73 0.80 0.87 0.88 0.86 0.88 0.91 0.92 0.94 0.97
0.44 0.53 0.59 0.64 0.68 0.72 0.86 1.00 1.15 1.30 1.47 1.61 1.65 1.59 1.59 1.57 1.44 1.32 1.23 1.09 0.94 0.82 0.74 0.64 0.58 0.52 0.48 0.46 0.46 0.45 0.43 0.47 0.49 0.53 0.59 0.68 0.74 0.78 0.82 0.85 0.83 0.76 0.75
0.51 0.50 0.51 0.52 0.51 0.52 0.62 0.73 0.82 0.97 1.07 1.11 1.12 1.04 0.99 0.92 0.85 0.78 0.77 0.69 0.61 0.58 0.55 0.49 0.45 0.43 0.41 0.40 0.39 0.40 0.37 0.40 0.46 0.51 0.54 0.60 0.63 0.67 0.68 0.67 0.68 0.70 0.71
0.54 0.48 0.45 0.41 0.41 0.44 0.48 0.54 0.62 0.67 0.70 0.68 0.65 0.63 0.60 0.58 0.57 0.55 0.53 0.54 0.51 0.48 0.46 0.43 0.41 0.40 0.41 0.40 0.38 0.37 0.38 0.38 0.39 0.42 0.42 0.46 0.48 0.51 0.52 0.53 0.54 0.56 0.59
0.56 0.51 0.48 0.43 0.43 0.45 0.45 0.43 0.46 0.50 0.50 0.49 0.49 0.46 0.46 0.47 0.49 0.51 0.49 0.49 0.47 0.45 0.42 0.39 0.39 0.39 0.40 0.39 0.38 0.36 0.35 0.34 0.33 0.32 0.30 0.31 0.32 0.34 0.34 0.35 0.36 0.36 0.37
0.59 0.59 0.61 0.58 0.52 0.47 0.47 0.43 0.43 0.43 0.46 0.45 0.43 0.39 0.37 0.38 0.40 0.41 0.41 0.41 0.41 0.43 0.44 0.42 0.40 0.37 0.34 0.31 0.29 0.27 0.26 0.25 0.25 0.23 0.20 0.20 0.20 0.22 0.25 0.25 0.26 0.28 0.30
0.71 0.72 0.72 0.65 0.58 0.55 0.53 0.50 0.49 0.47 0.47 0.48 0.50 0.47 0.42 0.39 0.39 0.40 0.44 0.43 0.38 0.35 0.33 0.30 0.27 0.23 0.19 0.17 0.16 0.16 0.17 0.17 0.17 0.16 0.15 0.15 0.18 0.19 0.20 0.20 0.22 0.27 0.30
0.94 0.91 0.84 0.77 0.73 0.71 0.66 0.63 0.60 0.58 0.57 0.58 0.58 0.59 0.58 0.55 0.51 0.46 0.41 0.36 0.31 0.25 0.19 0.15 0.15 0.14 0.13 0.12 0.13 0.13 0.14 0.14 0.15 0.15 0.15 0.15 0.15 0.15 0.15 0.17 0.21 0.28 0.29
1.09 1.08 1.04 0.97 0.90 0.87 0.82 0.79 0.74 0.69 0.68 0.67 0.66 0.65 0.61 0.56 0.46 0.36 0.29 0.24 0.22 0.20 0.17 0.13 0.10 0.09 0.10 0.11 0.11 0.12 0.13 0.14 0.15 0.14 0.15 0.13 0.11 0.13 0.14 0.14 0.15 0.16 0.15
1.09 1.08 1.06 1.06 1.02 0.95 0.87 0.84 0.79 0.74 0.70 0.69 0.64 0.59 0.51 0.43 0.34 0.27 0.23 0.20 0.20 0.21 0.20 0.16 0.14 0.11 0.08 0.07 0.08 0.08 0.10 0.12 0.12 0.11 0.12 0.13 0.14 0.13 0.12 0.10 0.11 0.14 0.17
1.22 1.17 1.10 1.02 0.98 0.93 0.87 0.84 0.83 0.78 0.69 0.62 0.53 0.43 0.35 0.30 0.25 0.22 0.20 0.20 0.19 0.18 0.16 0.16 0.16 0.16 0.12 0.06 0.05 0.05 0.08 0.10 0.10 0.10 0.09 0.10 0.13 0.12 0.11 0.10 0.15 0.21 0.24
1.05 0.98 0.89 0.80 0.78 0.78 0.75 0.69 0.65 0.61 0.53 0.41 0.33 0.29 0.27 0.26 0.24 0.21 0.19 0.18 0.18 0.16 0.13 0.11 0.13 0.14 0.13 0.06 0.05 0.06 0.07 0.09 0.09 0.09 0.11 0.09 0.09 0.08 0.07 0.10 0.17 0.25 0.26
0.77 0.72 0.68 0.70 0.70 0.62 0.53 0.48 0.43 0.40 0.33 0.27 0.24 0.22 0.21 0.19 0.21 0.22 0.20 0.19 0.18 0.18 0.16 0.14 0.13 0.12 0.08 0.04 0.03 0.03 0.05 0.07 0.08 0.12 0.18 0.17 0.09 0.05 0.05 0.08 0.14 0.20 0.18
0.52 0.51 0.53 0.55 0.52 0.43 0.37 0.36 0.34 0.27 0.22 0.23 0.25 0.24 0.20 0.15 0.18 0.25 0.24 0.22 0.23 0.24 0.23 0.21 0.18 0.14 0.09 0.04 0.02 0.02 0.02 0.03 0.08 0.17 0.19 0.18 0.10 0.07 0.10 0.11 0.15 0.17 0.24
0.38 0.41 0.38 0.38 0.37 0.35 0.34 0.34 0.31 0.25 0.24 0.27 0.30 0.26 0.20 0.18 0.21 0.25 0.26 0.25 0.25 0.22 0.19 0.19 0.18 0.15 0.13 0.08 0.02 0.01 0.01 0.02 0.06 0.13 0.12 0.12 0.13 0.15 0.26 0.24 0.22 0.28 0.43
0.31 0.33 0.31 0.31 0.32 0.32 0.32 0.32 0.29 0.28 0.34 0.38 0.33 0.25 0.23 0.22 0.23 0.22 0.20 0.18 0.20 0.17 0.16 0.17 0.15 0.15 0.15 0.08 0.03 0.03 0.04 0.05 0.08 0.11 0.14 0.22 0.28 0.32 0.39 0.43 0.48 0.50 0.50
0.28 0.29 0.31 0.30 0.26 0.25 0.25 0.24 0.27 0.32 0.42 0.40 0.32 0.25 0.21 0.21 0.21 0.18 0.12 0.09 0.08 0.06 0.09 0.11 0.10 0.10 0.09 0.04 0.03 0.03 0.03 0.04 0.05 0.08 0.20 0.35 0.42 0.47 0.51 0.54 0.57 0.59 0.52
0.23 0.27 0.29 0.25 0.23 0.22 0.22 0.21 0.25 0.29 0.37 0.38 0.27 0.20 0.16 0.15 0.13 0.14 0.13 0.07 0.03 0.02 0.02 0.03 0.03 0.03 0.04 0.03 0.02 0.02 0.03 0.05 0.07 0.13 0.29 0.36 0.39 0.43 0.44 0.44 0.48 0.52 0.51